sat.trackr.live / text

‹ back to catalog

STARLINK-6304

NORAD 56778 · 2023-078M

PAYLOAD ACTIVE UNKNOWN

§ Identity

Operator
Country
US
Launch date
2023-05-31
Launch site
AFWTR
Launch vehicle
Mass (kg)
RCS (m²)

Purposes: comms

External: N2YO · Heavens-Above · Gunter

§ Orbital elements

Epoch: 2026-09-20T22:00:03.000096Z

Period
95.41 min
Inclination
70.0005°
Eccentricity
0.0002290
Mean motion
15.09202695 rev/d
Perigee alt
537.1 km
Apogee alt
540.2 km
Semi-major
6,916.8 km
B*
-1.0660e-4
RAAN
192.1812°
Arg perigee
233.2095°
Mean anomaly
269.9410°
Rev number
571

§ Raw data

STARLINK-63041 56778U 23078M   26263.91670139 -.00001801  00000+0 -10660-3 0  99952 56778  70.0005 192.1812 0002290 233.2095 269.9410 15.09202695  5711

JSON: /api/v1/satellites/56778 · /tle

For live sub-satellite position, see the globe view (requires WebGL).

§ Visibility from observer

Set your observer location to see the next 7 days of passes ≥ 10°. The values pass through the URL so the page stays shareable.

No JS? Fill the form by hand. The geolocation button needs JavaScript.